Weather in Barbacena

Brazil     21°12′55″S   43°44′56″W
temp.,
°C
wind,
m/s
gust,
m/s
humid.,
%
clouds,
%
prec.,
mm/h
press.,
hPa
HPBL,
m
17 september, fri
fri1700:00+17se51094100 0.1 1024607
03:00+17ese4997100 0.3 1022564
06:00+16e51095100 0.1 1023545
09:00+19ese587660 0.3 1024754
12:00+24e565132 0.1 10211433
15:00+24ene655231 0.1 10181477
18:00+20ese47733 0.0 1019267
21:00+16e37967 0.0 1022193
18 september, sat
sat1800:00+15e269968 0.0 1021194
03:00+17ne488763 0.0 1019476
06:00+14ene269834 0.0 1020205
09:00+22ne55500 0.0 1019603
12:00+28ne32295 0.0 10161589
15:00+30ene432539 0.0 10122662
18:00+25ene382983 0.0 1014225
21:00+21nnw1133100 0.0 101715
19 september, sun
sun1900:00+21ene36318 0.0 1016150
03:00+18ne22395 0.0 101513
06:00+17e11415 0.0 101611
09:00+28ne112571 0.0 1016675
12:00+32sse242112 0.0 10142894
15:00+32se442013 0.0 10113306
18:00+25ese49354 0.0 1013267
21:00+21se31051100 0.0 1016223
20 september, mon
mon2000:00+19ese257686 0.0 101798
03:00+17ese369384 0.0 1016131
06:00+16e229585 0.0 101749
09:00+25ne444587 0.0 1017689
12:00+30ene342968 0.0 10142270
15:00+32e442431 0.0 10112984
18:00+25e494211 0.0 1012276
21:00+20e37635 0.0 1015147
21 september, tue
tue2100:00+19ene267260 0.0 1015126
03:00+19nne24619 0.0 101363
06:00+18nw22660 0.0 101417
09:00+29wnw56335 0.0 1013815
12:00+35wsw46185 0.0 10103679
15:00+36wsw461514 0.0 10064088
18:00+29sw112320 0.0 100711
21:00+17sse81489100 0.0 1014333